Hourly Weather Chalda

Today, 15 July, Wednesday

Time Temperature Precipitation Wind Pressure Humidity
00:00 +21°C° 0.1 mm 1 mps 705 mmHg 82%
01:00 +20°C° 0 mm 1 mps 705 mmHg 81%
02:00 +20°C° 0 mm 1 mps 705 mmHg 81%
03:00 +20°C° 0 mm 1 mps 705 mmHg 82%
04:00 +21°C° 0 mm 1 mps 706 mmHg 80%
05:00 +21°C° 0 mm 1 mps 706 mmHg 79%
06:00 +22°C° 0 mm 1 mps 707 mmHg 77%
07:00 +24°C° 0 mm 1 mps 707 mmHg 72%
08:00 +25°C° 0 mm 1 mps 707 mmHg 67%
09:00 +26°C° 0 mm 2 mps 707 mmHg 62%
10:00 +27°C° 0.3 mm 2 mps 707 mmHg 62%
11:00 +27°C° 0.3 mm 2 mps 707 mmHg 62%
12:00 +28°C° 0.3 mm 2 mps 707 mmHg 61%
13:00 +28°C° 1.8 mm 2 mps 707 mmHg 65%
14:00 +27°C° 1.8 mm 2 mps 707 mmHg 68%
15:00 +27°C° 1.8 mm 2 mps 707 mmHg 72%
16:00 +26°C° 1.6 mm 2 mps 707 mmHg 74%
17:00 +26°C° 1.6 mm 1 mps 707 mmHg 77%
18:00 +25°C° 1.6 mm 1 mps 706 mmHg 80%
19:00 +25°C° 0.1 mm 1 mps 707 mmHg 82%
20:00 +24°C° 0.1 mm 1 mps 707 mmHg 84%
21:00 +23°C° 0.1 mm 1 mps 707 mmHg 86%
22:00 +22°C° 0.5 mm 1 mps 706 mmHg 86%
23:00 +22°C° 0.5 mm 1 mps 706 mmHg 86%

Tomorrow, 16 July, Thursday

Time Temperature Precipitation Wind Pressure Humidity
00:00 +22°C° 0.5 mm 1 mps 706 mmHg 86%
01:00 +22°C° 0.7 mm 1 mps 706 mmHg 87%
02:00 +21°C° 0.7 mm 1 mps 706 mmHg 87%
03:00 +21°C° 0.7 mm 1 mps 706 mmHg 88%
04:00 +22°C° 0.2 mm 1 mps 706 mmHg 86%
05:00 +22°C° 0.2 mm 1 mps 706 mmHg 84%
06:00 +23°C° 0.2 mm 1 mps 705 mmHg 83%
07:00 +24°C° 0.1 mm 1 mps 706 mmHg 78%
08:00 +25°C° 0.1 mm 1 mps 706 mmHg 72%
09:00 +27°C° 0.1 mm 1 mps 706 mmHg 67%
10:00 +27°C° 0.6 mm 2 mps 706 mmHg 65%
11:00 +28°C° 0.6 mm 2 mps 706 mmHg 63%
12:00 +29°C° 0.6 mm 2 mps 705 mmHg 61%
13:00 +28°C° 1.1 mm 2 mps 705 mmHg 64%
14:00 +28°C° 1.1 mm 2 mps 705 mmHg 66%
15:00 +28°C° 1.1 mm 2 mps 705 mmHg 68%
16:00 +27°C° 0.8 mm 2 mps 704 mmHg 71%
17:00 +27°C° 0.8 mm 1 mps 704 mmHg 73%
18:00 +26°C° 0.8 mm 1 mps 704 mmHg 76%
19:00 +25°C° 0.1 mm 1 mps 704 mmHg 80%
20:00 +22°C° 0.1 mm 0 mps 704 mmHg 84%
21:00 +20°C° 0.1 mm 0 mps 704 mmHg 88%
22:00 +22°C° 0.5 mm 1 mps 704 mmHg 88%
23:00 +22°C° 0.5 mm 1 mps 704 mmHg 88%

Day after tomorrow, 17 July, Friday

Time Temperature Precipitation Wind Pressure Humidity
00:00 +21°C° 0.5 mm 1 mps 704 mmHg 87%
01:00 +21°C° 0 mm 1 mps 703 mmHg 87%
02:00 +21°C° 0 mm 1 mps 703 mmHg 86%
03:00 +21°C° 0 mm 1 mps 703 mmHg 85%
04:00 +21°C° 0 mm 1 mps 703 mmHg 83%
05:00 +22°C° 0 mm 1 mps 703 mmHg 81%
06:00 +23°C° 0 mm 1 mps 703 mmHg 78%
07:00 +25°C° 0 mm 1 mps 703 mmHg 72%
08:00 +26°C° 0 mm 1 mps 704 mmHg 65%
09:00 +28°C° 0 mm 1 mps 704 mmHg 59%
10:00 +29°C° 0 mm 2 mps 704 mmHg 55%
11:00 +30°C° 0 mm 2 mps 704 mmHg 51%
12:00 +33°C° 0 mm 3 mps 703 mmHg 48%
13:00 +33°C° 0.1 mm 3 mps 703 mmHg 48%
14:00 +33°C° 0.1 mm 3 mps 703 mmHg 48%
15:00 +33°C° 0.1 mm 3 mps 703 mmHg 49%
16:00 +31°C° 0.2 mm 2 mps 702 mmHg 55%
17:00 +30°C° 0.2 mm 2 mps 702 mmHg 61%
18:00 +29°C° 0.2 mm 1 mps 702 mmHg 67%
19:00 +28°C° 0.8 mm 1 mps 702 mmHg 71%
20:00 +26°C° 0.8 mm 1 mps 702 mmHg 76%
21:00 +24°C° 0.8 mm 1 mps 702 mmHg 80%
22:00 +24°C° 0.5 mm 2 mps 702 mmHg 81%
23:00 +24°C° 0.5 mm 2 mps 702 mmHg 82%

18 July, Saturday

Time Temperature Precipitation Wind Pressure Humidity
00:00 +24°C° 0.5 mm 2 mps 702 mmHg 83%
01:00 +23°C° 0.1 mm 2 mps 702 mmHg 82%
02:00 +23°C° 0.1 mm 2 mps 702 mmHg 82%
03:00 +23°C° 0.1 mm 2 mps 702 mmHg 81%
04:00 +23°C° 0 mm 2 mps 703 mmHg 80%
05:00 +24°C° 0 mm 1 mps 703 mmHg 78%
06:00 +24°C° 0 mm 1 mps 703 mmHg 76%
07:00 +26°C° 0 mm 1 mps 704 mmHg 72%
08:00 +27°C° 0 mm 1 mps 704 mmHg 67%
09:00 +28°C° 0 mm 1 mps 704 mmHg 63%
10:00 +29°C° 0.1 mm 2 mps 704 mmHg 62%
11:00 +30°C° 0.1 mm 2 mps 705 mmHg 61%
12:00 +31°C° 0.1 mm 3 mps 705 mmHg 61%
13:00 +30°C° 1.1 mm 2 mps 705 mmHg 64%
14:00 +30°C° 1.1 mm 2 mps 705 mmHg 67%
15:00 +29°C° 1.1 mm 2 mps 705 mmHg 70%
16:00 +29°C° 1.1 mm 2 mps 705 mmHg 72%
17:00 +28°C° 1.1 mm 2 mps 705 mmHg 74%
18:00 +27°C° 1.1 mm 2 mps 705 mmHg 77%
19:00 +26°C° 0.2 mm 1 mps 705 mmHg 80%
20:00 +25°C° 0.2 mm 1 mps 706 mmHg 83%
21:00 +22°C° 0.2 mm 0 mps 706 mmHg 86%
22:00 +22°C° 0 mm 0 mps 706 mmHg 87%
23:00 +24°C° 0 mm 1 mps 706 mmHg 87%

19 July, Sunday

Time Temperature Precipitation Wind Pressure Humidity
00:00 +23°C° 0 mm 1 mps 706 mmHg 88%
01:00 +23°C° 0 mm 1 mps 706 mmHg 89%
02:00 +20°C° 0 mm 0 mps 706 mmHg 90%
03:00 +19°C° 0 mm 0 mps 706 mmHg 91%
04:00 +20°C° 0 mm 0 mps 707 mmHg 90%
05:00 +20°C° 0 mm 0 mps 707 mmHg 88%
06:00 +21°C° 0 mm 0 mps 707 mmHg 87%
07:00 +24°C° 0 mm 1 mps 707 mmHg 84%
08:00 +25°C° 0 mm 1 mps 707 mmHg 82%
09:00 +26°C° 0 mm 2 mps 707 mmHg 79%
10:00 +26°C° 0.1 mm 2 mps 707 mmHg 79%
11:00 +27°C° 0.1 mm 2 mps 707 mmHg 79%
12:00 +27°C° 0.1 mm 2 mps 707 mmHg 78%
13:00 +27°C° 0 mm 2 mps 706 mmHg 77%
14:00 +27°C° 0 mm 2 mps 706 mmHg 76%
15:00 +27°C° 0 mm 2 mps 706 mmHg 76%
16:00 +27°C° 0 mm 1 mps 706 mmHg 77%
17:00 +27°C° 0 mm 1 mps 706 mmHg 78%
18:00 +27°C° 0 mm 1 mps 706 mmHg 79%
19:00 +25°C° 0.1 mm 1 mps 706 mmHg 83%
20:00 +24°C° 0.1 mm 1 mps 706 mmHg 87%
21:00 +21°C° 0.1 mm 0 mps 706 mmHg 91%
22:00 +23°C° 0 mm 1 mps 705 mmHg 90%
23:00 +22°C° 0 mm 1 mps 705 mmHg 89%

20 July, Monday

Time Temperature Precipitation Wind Pressure Humidity
00:00 +22°C° 0 mm 1 mps 705 mmHg 89%
01:00 +22°C° 0 mm 1 mps 705 mmHg 88%
02:00 +22°C° 0 mm 1 mps 704 mmHg 87%
03:00 +22°C° 0 mm 1 mps 704 mmHg 86%
04:00 +23°C° 0 mm 1 mps 704 mmHg 83%
05:00 +23°C° 0 mm 1 mps 704 mmHg 81%
06:00 +24°C° 0 mm 1 mps 704 mmHg 78%
07:00 +26°C° 0 mm 1 mps 704 mmHg 74%
08:00 +27°C° 0 mm 1 mps 704 mmHg 70%
09:00 +29°C° 0 mm 2 mps 704 mmHg 65%
10:00 +30°C° 0 mm 2 mps 704 mmHg 64%
11:00 +30°C° 0 mm 2 mps 704 mmHg 63%
12:00 +31°C° 0 mm 2 mps 704 mmHg 62%
13:00 +31°C° 0.1 mm 2 mps 704 mmHg 64%
14:00 +31°C° 0.1 mm 2 mps 704 mmHg 66%
15:00 +31°C° 0.1 mm 2 mps 703 mmHg 68%
16:00 +30°C° 0.1 mm 2 mps 703 mmHg 71%
17:00 +30°C° 0.1 mm 2 mps 703 mmHg 73%
18:00 +29°C° 0.1 mm 1 mps 703 mmHg 76%
19:00 +28°C° 0.4 mm 1 mps 703 mmHg 80%
20:00 +26°C° 0.4 mm 1 mps 703 mmHg 85%
21:00 +22°C° 0.4 mm 0 mps 703 mmHg 90%
22:00 +24°C° 0 mm 1 mps 703 mmHg 89%
23:00 +24°C° 0 mm 1 mps 702 mmHg 89%
Show more